| time (UTC) | temp F | wind direction | speed MPH | gust MPH | rain 1hr in | rain 24hr in | rain mn in | humidity % | barometer mb |
| 20260504205508 | 71 | 59 | 1.0 | 2.0 | 0.00 | 0.00 | 0.00 | 32 | 1011.0 |
| 20260504205006 | 69 | 39 | 4.0 | 5.0 | 0.00 | 0.00 | 0.00 | 36 | 1010.8 |
| 20260504204504 | 70 | 52 | 4.0 | 5.0 | 0.00 | 0.00 | 0.00 | 33 | 1011.1 |
| 20260504204002 | 70 | 31 | 3.0 | 3.0 | 0.00 | 0.00 | 0.00 | 34 | 1010.8 |
| 20260504203500 | 71 | 52 | 1.0 | 1.0 | 0.00 | 0.00 | 0.00 | 32 | 1011.2 |
| 20260504202956 | 69 | 41 | 2.0 | 3.0 | 0.00 | 0.00 | 0.00 | 38 | 1010.9 |
| 20260504202452 | 70 | 9 | 3.0 | 3.0 | 0.00 | 0.00 | 0.00 | 34 | 1011.0 |
| 20260504201949 | 69 | 7 | 5.0 | 7.0 | 0.00 | 0.00 | 0.00 | 34 | 1011.2 |
| 20260504201446 | 70 | 160 | 2.0 | 2.0 | 0.00 | 0.00 | 0.00 | 34 | 1011.0 |
| 20260504200944 | 70 | 65 | 2.0 | 3.0 | 0.00 | 0.00 | 0.00 | 32 | 1011.0 |
| 20260504200441 | 69 | 350 | 3.0 | 3.0 | 0.00 | 0.00 | 0.00 | 36 | 1010.8 |
| 20260504195937 | 69 | 47 | 2.0 | 2.0 | 0.00 | 0.00 | 0.00 | 34 | 1011.0 |
| 20260504195433 | 70 | 62 | 4.0 | 5.0 | 0.00 | 0.00 | 0.00 | 34 | 1011.0 |
| 20260504194930 | 68 | 38 | 3.0 | 5.0 | 0.00 | 0.00 | 0.00 | 35 | 1011.0 |
| 20260504194426 | 69 | 49 | 2.0 | 2.0 | 0.00 | 0.00 | 0.00 | 36 | 1011.2 |
| 20260504193922 | 68 | 69 | 1.0 | 2.0 | 0.00 | 0.00 | 0.00 | 35 | 1011.1 |
| 20260504193419 | 69 | 41 | 5.0 | 7.0 | 0.00 | 0.00 | 0.00 | 33 | 1011.3 |
| 20260504192918 | 69 | 31 | 3.0 | 5.0 | 0.00 | 0.00 | 0.00 | 35 | 1011.2 |
| 20260504192415 | 68 | 46 | 2.0 | 2.0 | 0.00 | 0.00 | 0.00 | 33 | 1011.3 |
| 20260504191914 | 68 | 49 | 3.0 | 3.0 | 0.00 | 0.00 | 0.00 | 37 | 1011.4 |
| 20260504191411 | 68 | 31 | 2.0 | 3.0 | 0.00 | 0.00 | 0.00 | 37 | 1011.4 |
| 20260504190906 | 69 | 65 | 3.0 | 3.0 | 0.00 | 0.00 | 0.00 | 34 | 1011.5 |
| 20260504190402 | 68 | 30 | 3.0 | 5.0 | 0.00 | 0.00 | 0.00 | 37 | 1011.5 |
| 20260504185859 | 68 | 43 | 1.0 | 2.0 | 0.00 | 0.00 | 0.00 | 37 | 1011.7 |
| 20260504185356 | 67 | 43 | 3.0 | 3.0 | 0.00 | 0.00 | 0.00 | 36 | 1011.7 |
| 20260504184852 | 67 | 24 | 2.0 | 2.0 | 0.00 | 0.00 | 0.00 | 36 | 1012.0 |
| 20260504184348 | 67 | 45 | 2.0 | 2.0 | 0.00 | 0.00 | 0.00 | 34 | 1011.9 |
| 20260504183844 | 68 | 70 | 2.0 | 2.0 | 0.00 | 0.00 | 0.00 | 34 | 1012.1 |
| 20260504183342 | 67 | 24 | 1.0 | 2.0 | 0.00 | 0.00 | 0.00 | 35 | 1012.0 |
| 20260504182839 | 67 | 50 | 5.0 | 8.0 | 0.00 | 0.00 | 0.00 | 36 | 1012.1 |
| 20260504182337 | 66 | 37 | 1.0 | 1.0 | 0.00 | 0.00 | 0.00 | 36 | 1012.0 |
| 20260504181833 | 66 | 62 | 4.0 | 6.0 | 0.00 | 0.00 | 0.00 | 35 | 1012.2 |
| 20260504181331 | 65 | 61 | 3.0 | 3.0 | 0.00 | 0.00 | 0.00 | 40 | 1012.3 |
| 20260504180830 | 66 | 71 | 2.0 | 3.0 | 0.00 | 0.00 | 0.00 | 40 | 1012.2 |
| 20260504180328 | 65 | 66 | 3.0 | 5.0 | 0.00 | 0.00 | 0.00 | 38 | 1012.1 |
| 20260504175825 | 64 | 57 | 4.0 | 5.0 | 0.00 | 0.00 | 0.00 | 39 | 1012.3 |
| 20260504175322 | 64 | 45 | 3.0 | 6.0 | 0.00 | 0.00 | 0.00 | 39 | 1012.4 |
| 20260504174820 | 63 | 59 | 3.0 | 5.0 | 0.00 | 0.00 | 0.00 | 38 | 1012.4 |
| 20260504174317 | 64 | 50 | 4.0 | 5.0 | 0.00 | 0.00 | 0.00 | 39 | 1012.2 |
| 20260504173814 | 64 | 29 | 6.0 | 8.0 | 0.00 | 0.00 | 0.00 | 39 | 1012.3 |
| 20260504173311 | 63 | 61 | 3.0 | 6.0 | 0.00 | 0.00 | 0.00 | 39 | 1012.4 |
| 20260504172808 | 63 | 65 | 5.0 | 7.0 | 0.00 | 0.00 | 0.00 | 38 | 1012.4 |
| 20260504172305 | 63 | 56 | 6.0 | 8.0 | 0.00 | 0.00 | 0.00 | 39 | 1012.6 |
| 20260504171800 | 62 | 25 | 6.0 | 8.0 | 0.00 | 0.00 | 0.00 | 39 | 1012.4 |
| 20260504171258 | 62 | 61 | 3.0 | 5.0 | 0.00 | 0.00 | 0.00 | 41 | 1012.6 |
| 20260504170755 | 63 | 22 | 6.0 | 9.0 | 0.00 | 0.00 | 0.00 | 39 | 1012.3 |
| 20260504170252 | 61 | 62 | 5.0 | 8.0 | 0.00 | 0.00 | 0.00 | 41 | 1012.8 |
| 20260504160210 | 59 | 37 | 5.0 | 7.0 | 0.00 | 0.00 | 0.00 | 43 | 1013.2 |
| 20260504151138 | 57 | 43 | 4.0 | 5.0 | 0.00 | 0.00 | 0.00 | 44 | 1013.5 |
| 20260504150635 | 57 | 63 | 6.0 | 8.0 | 0.00 | 0.00 | 0.00 | 43 | 1013.1 |
| 20260504150132 | 57 | 40 | 5.0 | 6.0 | 0.00 | 0.00 | 0.00 | 43 | 1013.1 |
| 20260504141101 | 54 | 21 | 5.0 | 7.0 | 0.00 | 0.00 | 0.00 | 47 | 1012.8 |
| 20260504140557 | 54 | 42 | 4.0 | 6.0 | 0.00 | 0.00 | 0.00 | 47 | 1012.6 |
| 20260504130521 | 50 | 55 | 2.0 | 2.0 | 0.00 | 0.00 | 0.00 | 55 | 1012.1 |
| 20260504110409 | 43 | 66 | 0.0 | 0.0 | 0.00 | 0.00 | 0.00 | 83 | 1011.2 |
| 20260504100326 | 41 | 65 | 0.0 | 0.0 | 0.00 | 0.00 | 0.00 | 87 | 1010.2 |
| 20260504081720 | 44 | 64 | 0.0 | 0.0 | 0.00 | 0.00 | 0.00 | 83 | 1010.1 |
| 20260504081216 | 45 | 63 | 0.0 | 0.0 | 0.00 | 0.00 | 0.00 | 82 | 1010.3 |
| 20260504080712 | 47 | 63 | 0.0 | 0.0 | 0.00 | 0.00 | 0.00 | 77 | 1010.1 |
| 20260504080209 | 48 | 63 | 0.0 | 0.0 | 0.00 | 0.00 | 0.00 | 77 | 1010.1 |
| 20260504070137 | 46 | 60 | 0.0 | 0.0 | 0.00 | 0.00 | 0.00 | 76 | 1009.9 |
| 20260504050525 | 51 | 65 | 0.0 | 0.0 | 0.00 | 0.00 | 0.00 | 66 | 1009.7 |
| 20260504050022 | 52 | 59 | 0.0 | 0.0 | 0.00 | 0.00 | 0.00 | 64 | 1009.6 |
| 20260504045519 | 54 | 62 | 0.0 | 0.0 | 0.00 | 0.00 | 0.00 | 61 | 1009.7 |
| 20260504045014 | 55 | 64 | 0.0 | 0.0 | 0.00 | 0.00 | 0.00 | 58 | 1009.6 |
| 20260504044512 | 55 | 65 | 0.0 | 0.0 | 0.00 | 0.00 | 0.00 | 59 | 1009.6 |
| 20260504044009 | 56 | 65 | 0.0 | 0.0 | 0.00 | 0.00 | 0.00 | 59 | 1009.6 |
| 20260504043506 | 56 | 75 | 0.0 | 1.0 | 0.00 | 0.00 | 0.00 | 56 | 1009.4 |
| 20260504043003 | 56 | 66 | 0.0 | 0.0 | 0.00 | 0.00 | 0.00 | 55 | 1009.5 |
| 20260504042500 | 56 | 62 | 0.0 | 0.0 | 0.00 | 0.00 | 0.00 | 57 | 1009.5 |
| 20260504041957 | 57 | 60 | 1.0 | 2.0 | 0.00 | 0.00 | 0.00 | 56 | 1009.2 |
| 20260504041453 | 58 | 69 | 0.0 | 1.0 | 0.00 | 0.00 | 0.00 | 53 | 1009.5 |
| 20260504040948 | 59 | 65 | 0.0 | 0.0 | 0.00 | 0.00 | 0.00 | 51 | 1009.2 |
| 20260504040447 | 60 | 62 | 0.0 | 0.0 | 0.00 | 0.00 | 0.00 | 49 | 1009.2 |
| 20260504035942 | 60 | 125 | 1.0 | 2.0 | 0.00 | 0.00 | 0.00 | 48 | 1008.9 |
| 20260504035440 | 60 | 63 | 0.0 | 1.0 | 0.00 | 0.00 | 0.00 | 47 | 1009.0 |
| 20260504034937 | 60 | 42 | 2.0 | 2.0 | 0.00 | 0.00 | 0.00 | 48 | 1009.0 |
| 20260504034434 | 59 | 63 | 1.0 | 1.0 | 0.00 | 0.00 | 0.00 | 50 | 1008.9 |
| 20260504033931 | 59 | 63 | 0.0 | 0.0 | 0.00 | 0.00 | 0.00 | 54 | 1009.0 |
| 20260504033429 | 61 | 64 | 0.0 | 0.0 | 0.00 | 0.00 | 0.00 | 47 | 1008.8 |
| 20260504032926 | 59 | 61 | 1.0 | 1.0 | 0.00 | 0.00 | 0.00 | 53 | 1008.7 |
| 20260504032422 | 60 | 61 | 0.0 | 0.0 | 0.00 | 0.00 | 0.00 | 54 | 1008.8 |
| 20260504031919 | 62 | 60 | 0.0 | 0.0 | 0.00 | 0.00 | 0.00 | 48 | 1008.6 |
| 20260504031417 | 62 | 64 | 0.0 | 0.0 | 0.00 | 0.00 | 0.00 | 49 | 1008.7 |
| 20260504030913 | 62 | 61 | 0.0 | 0.0 | 0.00 | 0.00 | 0.00 | 47 | 1008.7 |
| 20260504030410 | 64 | 63 | 0.0 | 0.0 | 0.00 | 0.00 | 0.00 | 49 | 1008.7 |
| 20260504025901 | 64 | 61 | 0.0 | 0.0 | 0.00 | 0.00 | 0.00 | 47 | 1008.7 |
| 20260504025358 | 65 | 61 | 0.0 | 0.0 | 0.00 | 0.00 | 0.00 | 48 | 1008.5 |
| 20260504024855 | 66 | 60 | 0.0 | 0.0 | 0.00 | 0.00 | 0.00 | 45 | 1008.5 |
| 20260504024351 | 66 | 76 | 1.0 | 1.0 | 0.00 | 0.00 | 0.00 | 43 | 1008.6 |
| 20260504023849 | 67 | 61 | 0.0 | 0.0 | 0.00 | 0.00 | 0.00 | 42 | 1008.5 |
| 20260504023345 | 68 | 61 | 0.0 | 0.0 | 0.00 | 0.00 | 0.00 | 42 | 1008.6 |
| 20260504022840 | 69 | 65 | 0.0 | 0.0 | 0.00 | 0.00 | 0.00 | 43 | 1008.3 |
| 20260504022337 | 69 | 62 | 0.0 | 0.0 | 0.00 | 0.00 | 0.00 | 39 | 1008.5 |
| 20260504021834 | 69 | 81 | 1.0 | 2.0 | 0.00 | 0.00 | 0.00 | 43 | 1008.6 |
| 20260504021331 | 70 | 62 | 0.0 | 0.0 | 0.00 | 0.00 | 0.00 | 40 | 1008.6 |
| 20260504020828 | 70 | 103 | 1.0 | 2.0 | 0.00 | 0.00 | 0.00 | 41 | 1008.5 |
| 20260504020325 | 70 | 63 | 1.0 | 1.0 | 0.00 | 0.00 | 0.00 | 43 | 1008.3 |
| 20260504015821 | 69 | 34 | 1.0 | 1.0 | 0.00 | 0.00 | 0.00 | 38 | 1008.5 |
| 20260504015317 | 70 | 61 | 1.0 | 1.0 | 0.00 | 0.00 | 0.00 | 41 | 1008.4 |
| 20260504014814 | 70 | 52 | 2.0 | 2.0 | 0.00 | 0.00 | 0.00 | 38 | 1008.5 |
| 20260504014310 | 71 | 59 | 1.0 | 2.0 | 0.00 | 0.00 | 0.00 | 38 | 1008.5 |
| 20260504013808 | 72 | 50 | 2.0 | 3.0 | 0.00 | 0.00 | 0.00 | 36 | 1008.4 |
| 20260504013305 | 72 | 63 | 1.0 | 1.0 | 0.00 | 0.00 | 0.00 | 38 | 1008.7 |
| 20260504012802 | 72 | 42 | 3.0 | 3.0 | 0.00 | 0.00 | 0.00 | 36 | 1008.6 |
| 20260504012300 | 73 | 69 | 2.0 | 2.0 | 0.00 | 0.00 | 0.00 | 39 | 1008.7 |
| 20260504011756 | 74 | 47 | 1.0 | 1.0 | 0.00 | 0.00 | 0.00 | 34 | 1008.7 |
| 20260504011253 | 74 | 49 | 1.0 | 2.0 | 0.00 | 0.00 | 0.00 | 34 | 1008.6 |
| 20260504010749 | 74 | 40 | 2.0 | 2.0 | 0.00 | 0.00 | 0.00 | 32 | 1008.6 |
| 20260504010244 | 74 | 49 | 3.0 | 5.0 | 0.00 | 0.00 | 0.00 | 32 | 1008.7 |
| 20260504005742 | 75 | 59 | 3.0 | 3.0 | 0.00 | 0.00 | 0.00 | 36 | 1008.8 |
| 20260504005239 | 75 | 49 | 3.0 | 5.0 | 0.00 | 0.00 | 0.00 | 31 | 1008.8 |
| 20260504004736 | 75 | 28 | 5.0 | 5.0 | 0.00 | 0.00 | 0.00 | 32 | 1008.5 |
| 20260504004233 | 75 | 36 | 2.0 | 2.0 | 0.00 | 0.00 | 0.00 | 29 | 1008.7 |
| 20260504003730 | 75 | 17 | 3.0 | 5.0 | 0.00 | 0.00 | 0.00 | 30 | 1008.7 |
| 20260504003227 | 76 | 15 | 3.0 | 3.0 | 0.00 | 0.00 | 0.00 | 31 | 1008.8 |
| 20260504002723 | 77 | 56 | 3.0 | 3.0 | 0.00 | 0.00 | 0.00 | 28 | 1008.8 |
| 20260504002220 | 76 | 61 | 0.0 | 0.0 | 0.00 | 0.00 | 0.00 | 28 | 1008.9 |
| 20260504001718 | 76 | 48 | 2.0 | 2.0 | 0.00 | 0.00 | 0.00 | 30 | 1008.9 |
| 20260504001215 | 76 | 52 | 2.0 | 2.0 | 0.00 | 0.00 | 0.00 | 28 | 1008.8 |
| 20260504000712 | 77 | 56 | 2.0 | 2.0 | 0.00 | 0.00 | 0.00 | 29 | 1008.8 |
| 20260504000208 | 78 | 93 | 3.0 | 3.0 | 0.00 | 0.00 | 0.00 | 29 | 1009.0 |
| 20260503235707 | 78 | 69 | 0.0 | 1.0 | 0.00 | 0.00 | 0.00 | 31 | 1008.9 |
| 20260503235204 | 77 | 59 | 1.0 | 1.0 | 0.00 | 0.00 | 0.00 | 29 | 1009.0 |
| 20260503234701 | 78 | 68 | 4.0 | 5.0 | 0.00 | 0.00 | 0.00 | 32 | 1009.2 |
| 20260503234159 | 78 | 60 | 1.0 | 2.0 | 0.00 | 0.00 | 0.00 | 28 | 1009.4 |
| 20260503233656 | 77 | 67 | 0.0 | 0.0 | 0.00 | 0.00 | 0.00 | 29 | 1009.1 |
| 20260503233151 | 77 | 183 | 2.0 | 5.0 | 0.00 | 0.00 | 0.00 | 30 | 1009.1 |
| 20260503232648 | 76 | 35 | 3.0 | 3.0 | 0.00 | 0.00 | 0.00 | 31 | 1009.4 |
| 20260503232146 | 75 | 52 | 3.0 | 3.0 | 0.00 | 0.00 | 0.00 | 31 | 1009.4 |
| 20260503231644 | 75 | 52 | 3.0 | 3.0 | 0.00 | 0.00 | 0.00 | 29 | 1009.0 |
| 20260503231140 | 76 | 72 | 1.0 | 1.0 | 0.00 | 0.00 | 0.00 | 33 | 1009.5 |
| 20260503230637 | 77 | 79 | 3.0 | 3.0 | 0.00 | 0.00 | 0.00 | 32 | 1009.6 |
| 20260503230134 | 77 | 58 | 3.0 | 3.0 | 0.00 | 0.00 | 0.00 | 30 | 1009.5 |
| 20260503225632 | 77 | 54 | 3.0 | 5.0 | 0.00 | 0.00 | 0.00 | 34 | 1009.8 |
| 20260503225131 | 77 | 354 | 5.0 | 7.0 | 0.00 | 0.00 | 0.00 | 30 | 1009.7 |
| 20260503224629 | 77 | 58 | 3.0 | 3.0 | 0.00 | 0.00 | 0.00 | 31 | 1009.9 |
| 20260503224127 | 76 | 35 | 2.0 | 2.0 | 0.00 | 0.00 | 0.00 | 30 | 1009.8 |
| 20260503223625 | 77 | 25 | 11.0 | 13.0 | 0.00 | 0.00 | 0.00 | 30 | 1009.9 |
| 20260503223120 | 77 | 31 | 5.0 | 5.0 | 0.00 | 0.00 | 0.00 | 32 | 1010.1 |
| 20260503222618 | 79 | 47 | 5.0 | 6.0 | 0.00 | 0.00 | 0.00 | 30 | 1010.0 |
| 20260503222115 | 78 | 70 | 1.0 | 1.0 | 0.00 | 0.00 | 0.00 | 26 | 1010.0 |
| 20260503221614 | 78 | 68 | 1.0 | 1.0 | 0.00 | 0.00 | 0.00 | 28 | 1010.1 |
| 20260503221111 | 79 | 81 | 2.0 | 2.0 | 0.00 | 0.00 | 0.00 | 30 | 1010.1 |
| 20260503220608 | 79 | 319 | 2.0 | 2.0 | 0.00 | 0.00 | 0.00 | 28 | 1010.2 |
| 20260503220104 | 78 | 57 | 1.0 | 2.0 | 0.00 | 0.00 | 0.00 | 26 | 1010.3 |
| 20260503215601 | 78 | 56 | 0.0 | 1.0 | 0.00 | 0.00 | 0.00 | 27 | 1010.6 |
| 20260503215057 | 78 | 53 | 1.0 | 1.0 | 0.00 | 0.00 | 0.00 | 28 | 1010.4 |
| 20260503214556 | 79 | 65 | 1.0 | 1.0 | 0.00 | 0.00 | 0.00 | 27 | 1010.8 |
| 20260503214052 | 78 | 69 | 0.0 | 1.0 | 0.00 | 0.00 | 0.00 | 31 | 1010.9 |
| 20260503213551 | 78 | 335 | 2.0 | 2.0 | 0.00 | 0.00 | 0.00 | 29 | 1010.9 |
| 20260503213047 | 77 | 104 | 1.0 | 2.0 | 0.00 | 0.00 | 0.00 | 36 | 1011.0 |
| 20260503212545 | 77 | 52 | 1.0 | 1.0 | 0.00 | 0.00 | 0.00 | 30 | 1010.8 |
| 20260503212042 | 78 | 19 | 3.0 | 3.0 | 0.00 | 0.00 | 0.00 | 30 | 1011.2 |
| 20260503211539 | 76 | 65 | 0.0 | 1.0 | 0.00 | 0.00 | 0.00 | 31 | 1011.1 |
| 20260503211034 | 76 | 200 | 3.0 | 5.0 | 0.00 | 0.00 | 0.00 | 34 | 1011.4 |
| 20260503210531 | 76 | 56 | 3.0 | 3.0 | 0.00 | 0.00 | 0.00 | 32 | 1011.4 |
| 20260503210027 | 75 | 228 | 1.0 | 2.0 | 0.00 | 0.00 | 0.00 | 32 | 1011.4 |